Weather reports worldwide

Advertisment
Milano/Malpensa, Italy (16066): temperature & dewpoint: 17.10.2019 05:00:00 - 23.10.2019 05:00:00 (CEST)Milano/Malpensa, Italy (16066): wind speed: 17.10.2019 05:00:00 - 23.10.2019 05:00:00 (CEST)Milano/Malpensa, Italy (16066): wind direction: 17.10.2019 05:00:00 - 23.10.2019 05:00:00 (CEST)Milano/Malpensa, Italy (16066): reduced air pressure: 17.10.2019 05:00:00 - 23.10.2019 05:00:00 (CEST)Milano/Malpensa, Italy (16066): visibility: 17.10.2019 05:00:00 - 23.10.2019 05:00:00 (CEST)Milano/Malpensa, Italy (16066): precipitation: 17.10.2019 05:00:00 - 23.10.2019 05:00:00 (CEST)
Date & Time tt [°C] td [°C] ff [km/h] ff [kn] dd ppp [hPa] vv [km] rr [mm]
23.10.2019 05:00:00 13,1 13,1 9 5 NNE 1021,9 8 0,0
23.10.2019 04:00:00 12,0 12,0 11 6 N - 10 -
23.10.2019 03:00:00 12,0 12,0 8 4 NNE - 10 -
23.10.2019 02:00:00 12,7 12,7 5 3 N 1022,3 2,5 -
23.10.2019 01:00:00 14,0 14,0 8 4 N - 3,5 -
23.10.2019 00:00:00 14,0 14,0 4 2 - - 7 -
22.10.2019 23:00:00 14,6 14,6 8 4 NNE 1023,4 10 0,0
22.10.2019 22:00:00 15,0 15,0 4 2 NNE - 10 -
22.10.2019 21:00:00 16,0 16,0 2 1 - - 10 -
22.10.2019 20:00:00 18,1 16,1 4 2 - 1023,2 10 -
22.10.2019 19:00:00 19,0 17,0 8 4 SW - 10 -
22.10.2019 18:00:00 20,0 17,0 11 6 SSW - 10 -
22.10.2019 17:00:00 20,9 16,3 9 5 SSW 1023,0 10 0,0
22.10.2019 16:00:00 22,0 17,0 4 2 - - 10 -
22.10.2019 15:00:00 22,0 16,0 5 3 W - 10 -
22.10.2019 14:00:00 21,3 16,7 5 3 - 1023,9 10 -
22.10.2019 13:00:00 21,0 17,0 8 4 N - 10 -
22.10.2019 12:00:00 20,0 17,0 5 3 - - 10 -
22.10.2019 11:00:00 19,3 16,7 5 3 - 1024,9 10 0,0
22.10.2019 10:00:00 18,0 18,0 8 4 NNE - 10 -
22.10.2019 09:00:00 17,0 17,0 8 4 NE - 10 -
22.10.2019 08:00:00 16,6 16,6 8 4 ENE 1023,8 10 -
22.10.2019 07:00:00 16,0 16,0 9 5 NNE - 10 -
22.10.2019 06:00:00 16,0 16,0 11 6 NNE - 10 -
22.10.2019 05:00:00 16,0 16,0 11 6 NNE 1023,5 10 0,0
22.10.2019 04:00:00 16,0 16,0 4 2 - - 10 -
22.10.2019 03:00:00 16,0 16,0 8 4 SE - 10 -
22.10.2019 02:00:00 16,5 16,5 4 2 - 1023,1 10 -
22.10.2019 01:00:00 17,0 17,0 4 2 - - 10 -
22.10.2019 00:00:00 17,0 17,0 5 3 ESE - 10 -
21.10.2019 23:00:00 17,4 17,4 4 2 - 1023,3 10 0,0
21.10.2019 22:00:00 18,0 18,0 9 5 SSW - 10 -
21.10.2019 21:00:00 18,0 18,0 8 4 S - 10 -
21.10.2019 20:00:00 18,4 17,7 8 4 ESE 1021,6 10 -
21.10.2019 19:00:00 18,0 18,0 8 4 E - 10 -
21.10.2019 18:00:00 18,0 18,0 5 3 NNW - 10 -
21.10.2019 17:00:00 18,2 18,2 5 3 ENE 1020,9 10 0,0
21.10.2019 16:00:00 19,0 18,0 9 5 ENE - 10 -
21.10.2019 15:00:00 17,0 17,0 4 2 - - 10 -
21.10.2019 14:00:00 16,9 16,9 5 3 NNE 1022,1 10 -
21.10.2019 13:00:00 17,0 17,0 5 3 NE - 10 -
21.10.2019 12:00:00 16,0 16,0 9 5 ENE - 10 -
21.10.2019 11:00:00 15,7 15,7 2 1 - 1022,0 4,0 0,0
21.10.2019 10:00:00 16,0 16,0 15 8 ESE - 8 -
21.10.2019 09:00:00 16,0 16,0 22 12 ESE - 8 -
21.10.2019 08:00:00 15,7 15,7 15 8 E 1018,6 10 -
21.10.2019 07:00:00 16,0 16,0 16 9 SE - 5 -
21.10.2019 06:00:00 16,0 16,0 16 9 ESE - 3,5 -
21.10.2019 05:00:00 16,0 16,0 22 12 SE 1018,4 5 0,0
21.10.2019 04:00:00 16,0 16,0 15 8 ESE - 10 -
21.10.2019 03:00:00 16,0 15,0 16 9 SE - 10 -
21.10.2019 02:00:00 16,4 15,1 29 16 ESE 1018,1 10 -
21.10.2019 01:00:00 16,0 16,0 28 15 ESE - 10 -
21.10.2019 00:00:00 16,0 16,0 22 12 ESE - 7 -
20.10.2019 23:00:00 16,1 16,1 15 8 ESE 1018,5 5 0,0
20.10.2019 22:00:00 16,0 16,0 13 7 ESE - 10 -
20.10.2019 21:00:00 17,0 16,0 15 8 SE - 10 -
20.10.2019 20:00:00 16,9 16,5 13 7 E 1017,2 10 -
20.10.2019 19:00:00 17,0 17,0 8 4 SSE - 10 -
20.10.2019 18:00:00 17,0 17,0 4 2 - - 5 -
20.10.2019 17:00:00 16,8 16,8 4 2 - 1016,8 4,0 0,0
20.10.2019 16:00:00 17,0 17,0 5 3 NE - 8 -
20.10.2019 15:00:00 17,0 17,0 5 3 ENE - 4,0 -
20.10.2019 14:00:00 16,7 16,7 9 5 E 1017,4 5 -
20.10.2019 13:00:00 17,0 17,0 13 7 E - 10 -
20.10.2019 12:00:00 16,0 16,0 15 8 E - 7 -
20.10.2019 11:00:00 16,2 16,2 13 7 ESE 1018,1 5 0,0
20.10.2019 10:00:00 16,0 16,0 11 6 SE - 4,0 -
20.10.2019 09:00:00 16,0 16,0 9 5 E - 5 -
20.10.2019 08:00:00 15,9 15,9 16 9 ESE 1016,7 10 -
20.10.2019 07:00:00 16,0 16,0 15 8 ESE - 8 -
20.10.2019 06:00:00 - - - - - - - -
20.10.2019 05:00:00 15,7 15,7 16 9 ESE 1016,2 8 0,0
20.10.2019 04:00:00 16,0 16,0 15 8 ESE - 8 -
20.10.2019 03:00:00 16,0 16,0 15 8 ESE - 7 -
20.10.2019 02:00:00 15,8 15,8 11 6 ESE 1016,6 10 -
20.10.2019 01:00:00 16,0 16,0 13 7 SE - 10 -
20.10.2019 00:00:00 16,0 16,0 15 8 ESE - 8 -
19.10.2019 23:00:00 15,6 15,6 22 12 ESE 1015,8 10 0,0
19.10.2019 22:00:00 16,0 16,0 15 8 ESE - 10 -
19.10.2019 21:00:00 16,0 16,0 11 6 ESE - 10 -
19.10.2019 20:00:00 16,0 15,6 13 7 ESE 1015,3 10 -
19.10.2019 19:00:00 16,0 16,0 15 8 ESE - 10 -
19.10.2019 18:00:00 16,0 16,0 11 6 SE - 4,0 -
19.10.2019 17:00:00 15,6 15,6 9 5 E 1014,9 3,5 0,0
19.10.2019 16:00:00 15,0 15,0 16 9 ESE - 2,5 -
19.10.2019 15:00:00 15,0 15,0 15 8 SE - 2,0 -
19.10.2019 14:00:00 15,2 15,2 13 7 ESE 1015,4 2,0 -
19.10.2019 13:00:00 15,0 15,0 13 7 SE - 1,5 -
19.10.2019 12:00:00 15,0 15,0 15 8 ESE - 1,5 -
19.10.2019 11:00:00 14,5 14,5 13 7 SE 1015,6 1,5 0,0
19.10.2019 10:00:00 15,0 15,0 15 8 ESE - 1,5 -
19.10.2019 09:00:00 14,0 14,0 8 4 E - 3,0 -
19.10.2019 08:00:00 14,4 14,4 9 5 E 1014,9 4,0 -
19.10.2019 07:00:00 14,0 14,0 8 4 E - 4,0 -
19.10.2019 06:00:00 14,0 14,0 8 4 E - 2,0 -
19.10.2019 05:00:00 14,3 14,3 9 5 ESE 1015,5 2,0 0,0
19.10.2019 04:00:00 14,0 14,0 4 2 - - 2,0 -
19.10.2019 03:00:00 15,0 15,0 4 2 ENE - 2,0 -
19.10.2019 02:00:00 14,7 14,7 4 2 ENE 1016,5 2,0 -
19.10.2019 01:00:00 15,0 15,0 4 2 - - 2,0 -
19.10.2019 00:00:00 15,0 15,0 4 2 SE - 4,0 -
18.10.2019 23:00:00 15,1 15,0 5 3 SSE 1017,4 6 0,0
18.10.2019 22:00:00 15,0 15,0 4 2 - - 8 -
18.10.2019 21:00:00 15,0 15,0 4 2 - - 8 -
18.10.2019 20:00:00 15,6 14,5 5 3 SSE 1017,6 10 -
18.10.2019 19:00:00 16,0 15,0 11 6 SSE - 10 -
18.10.2019 18:00:00 18,0 14,0 4 2 - - 10 -
18.10.2019 17:00:00 17,9 13,9 4 2 - 1017,3 10 0,0
18.10.2019 16:00:00 18,0 14,0 4 2 - - 10 -
18.10.2019 15:00:00 18,0 14,0 5 3 SSW - 10 -
18.10.2019 14:00:00 17,6 14,4 5 3 SE 1018,2 10 -
18.10.2019 13:00:00 17,0 14,0 5 3 ESE - 10 -
18.10.2019 12:00:00 16,0 13,0 5 3 E - 10 -
18.10.2019 11:00:00 15,7 13,3 4 2 - 1018,9 10 0,0
18.10.2019 10:00:00 14,0 14,0 8 4 NNE - 10 -
18.10.2019 09:00:00 14,0 14,0 4 2 NE - 10 -
18.10.2019 08:00:00 13,0 13,0 4 2 NNE 1018,2 8 -
18.10.2019 07:00:00 13,0 13,0 2 1 - - 6 -
18.10.2019 06:00:00 13,0 13,0 2 1 - - 6 -
18.10.2019 05:00:00 13,1 13,1 2 1 - 1018,2 6 0,0
18.10.2019 04:00:00 13,0 13,0 9 5 N - 6 -
18.10.2019 03:00:00 13,0 13,0 5 3 N - 7 -
18.10.2019 02:00:00 12,7 12,7 5 3 N 1019,4 7 -
18.10.2019 01:00:00 12,0 12,0 5 3 NE - 7 -
18.10.2019 00:00:00 12,0 12,0 4 2 - - 8 -
17.10.2019 23:00:00 10,6 10,1 4 2 - 1019,7 8 0,0
17.10.2019 22:00:00 13,0 12,0 2 1 - - 10 -
17.10.2019 21:00:00 15,0 12,0 5 3 SSW - 10 -
17.10.2019 20:00:00 15,6 12,0 4 2 - 1019,1 10 -
17.10.2019 19:00:00 17,0 12,0 9 5 SSW - 10 -
17.10.2019 18:00:00 19,0 11,0 11 6 SSW - 10 -
17.10.2019 17:00:00 20,0 11,0 8 4 SSW - 10 -
17.10.2019 16:00:00 20,0 11,0 8 4 SW - 10 -
17.10.2019 15:00:00 19,0 11,0 8 4 SW - 10 -
17.10.2019 14:00:00 19,1 11,0 4 2 - 1019,6 10 -
17.10.2019 13:00:00 18,0 11,0 4 2 - - 10 -
17.10.2019 12:00:00 16,0 10,0 2 1 - - 10 -
17.10.2019 11:00:00 15,1 10,4 2 1 - 1021,1 10 0,0
17.10.2019 10:00:00 12,0 11,0 8 4 NE - 10 -
17.10.2019 09:00:00 11,0 10,0 5 3 NNE - 10 -
17.10.2019 08:00:00 9,7 8,9 9 5 N 1019,8 10 -
17.10.2019 07:00:00 11,0 10,0 9 5 N - 10 -
17.10.2019 06:00:00 11,0 10,0 11 6 N - 10 -
17.10.2019 05:00:00 9,9 9,4 13 7 N 1019,7 10 0,0

tt = temperature
td = dewpoint
ff = wind speed
dd = wind direction
ppp = reduced air pressure
vv = visibility
rr = precipitation

Next stations